Location: Lugano
(46.0000°N, 8.9670°E)
Time: 23:30:22
(UTC+01:00)

ACS3 Solar Sail - Visible Passes

Search period start: 12 March 2026 00:00
Search period end: 22 March 2026 00:00
Orbit: 884 x 975 km, 97.2° (Epoch: 12 March)

Date Brightness Start Highest point End Pass type
(mag) Time Alt. Az. Time Alt. Az. Time Alt. Az.
12 Mar 3.9 01:58:27 10° NNE 02:00:01 19° NNE 02:00:01 19° NNE visible
12 Mar 3.6 03:41:59 10° NNW 03:43:41 16° NNW 03:43:41 16° NNW visible
13 Mar 3.7 02:09:44 10° NNE 02:11:34 22° NNE 02:11:34 22° NNE visible
13 Mar 3.6 03:53:39 10° NNW 03:55:15 15° NNW 03:55:15 15° NNW visible
14 Mar 3.6 02:20:59 10° N 02:23:04 24° N 02:23:04 24° N visible
14 Mar 3.7 04:05:25 10° NNW 04:06:45 13° NW 04:06:45 13° NW visible
15 Mar 4.4 00:50:45 10° NE 00:50:51 10° NE 00:50:51 10° NE visible
15 Mar 3.4 02:32:14 10° N 02:34:31 25° N 02:34:31 25° N visible
15 Mar 3.8 04:17:24 10° NW 04:18:11 11° NW 04:18:11 11° NW visible
16 Mar 4.3 01:01:31 10° NE 01:02:15 13° NE 01:02:15 13° NE visible
16 Mar 3.3 02:43:27 10° N 02:45:54 26° N 02:45:54 26° N visible
17 Mar 4.1 01:12:22 10° NNE 01:13:36 16° NE 01:13:36 16° NE visible
17 Mar 3.3 02:54:40 10° N 02:57:16 26° NNW 02:57:16 26° NNW visible
18 Mar 3.9 01:23:13 10° NNE 01:24:54 19° NE 01:24:54 19° NE visible
18 Mar 3.2 03:05:52 10° N 03:08:34 25° NNW 03:08:34 25° NNW visible
19 Mar 3.7 01:34:05 10° NNE 01:36:09 22° NNE 01:36:09 22° NNE visible
19 Mar 3.3 03:17:02 10° N 03:19:49 23° NNW 03:19:49 23° NNW visible
20 Mar 3.5 01:44:57 10° NNE 01:47:21 25° NNE 01:47:21 25° NNE visible
20 Mar 3.3 03:28:13 10° N 03:31:01 21° NW 03:31:01 21° NW visible
21 Mar 3.3 01:55:47 10° NNE 01:58:30 29° NNE 01:58:30 29° NNE visible
21 Mar 3.4 03:39:25 10° NNW 03:42:09 19° NW 03:42:09 19° NW visible
